Weather History for KANB - November, 2012

Change the Weather History Date:

Thursday, November 15, 2012

  Actual Average Record
Temperature  
Mean Temperature 50 °F 54 °F  
Max Temperature 61 °F 66 °F 80 °F (1955)
Min Temperature 38 °F 42 °F 18 °F (1969)
Degree Days  
Heating Degree Days 15    
Month to date heating degree days 205  
Since 1 July heating degree days 358  
Moisture  
Dew Point 40 °F    
Average Humidity 75    
Maximum Humidity 100    
Minimum Humidity 49    
Precipitation  
Precipitation 0.00 in 0.16 in 2.66 in (2006)
Month to date precipitation 0.99 2.14  
Year to date precipitation 39.26 43.11  
Sea Level Pressure  
Sea Level Pressure 30.28 in    
Wind  
Wind Speed 3 mph (ENE)    
Max Wind Speed 9 mph    
Max Gust Speed 12 mph    
Visibility 7 miles    
Events      
T = Trace of Precipitation, MM = Missing Value Source: NWS Daily Summary

Daily Weather History Graph

Daily Weather History Graph

Search for Another Location

Airport or City:

Trip Planner

Search our weather history database for the weather conditions in past years. The results will help you decide how hot, cold, wet, or windy it might be!

Date:

Astronomy

Nov. 15, 2012 Rise Set
Actual Time 6:15 AM CST 4:40 PM CST
Civil Twilight 5:49 AM CST 5:06 PM CST
Nautical Twilight 5:19 AM CST 5:36 PM CST
Astronomical Twilight 4:49 AM CST 6:06 PM CST
Moon 8:07 AM CST (11/15) 6:34 PM CST (11/15)
Length of Visible Light 11h 17m
Length of Day
10h 24m
Waxing Crescent, 5% of the Moon is Illuminated
Nov 15
Waxing Crescent
Nov 20
First Quarter
Nov 28
Full
Dec 6
Last Quarter
Dec 13
New

Hourly Weather History & Observations

Time (CST) Temp. Windchill Dew Point Humidity Pressure Visibility Wind Dir Wind Speed Gust Speed Precip Events Conditions
12:53 AM 48.0 °F - 37.9 °F 68% 30.27 in 10.0 mi East 6.9 mph - N/A   Overcast
1:53 AM 48.0 °F - 37.9 °F 68% 30.27 in 9.0 mi East 6.9 mph - N/A   Overcast
2:53 AM 46.9 °F - 39.0 °F 74% 30.27 in 8.0 mi East 3.5 mph - N/A   Overcast
3:53 AM 46.9 °F - 39.0 °F 74% 30.28 in 8.0 mi East 4.6 mph - N/A   Overcast
4:53 AM 46.0 °F 44.8 °F 39.0 °F 76% 30.30 in 7.0 mi ESE 3.5 mph - N/A   Overcast
5:53 AM 46.0 °F 42.5 °F 39.0 °F 76% 30.31 in 7.0 mi ENE 6.9 mph - N/A   Overcast
6:53 AM 46.0 °F 42.5 °F 39.9 °F 79% 30.32 in 6.0 mi ENE 6.9 mph - N/A   Haze
7:53 AM 46.0 °F 43.1 °F 41.0 °F 83% 30.32 in 5.0 mi East 5.8 mph - N/A   Haze
8:29 AM 46.4 °F 41.9 °F 41.0 °F 81% 30.31 in 6.0 mi ENE 9.2 mph - N/A   Haze
8:53 AM 46.9 °F - 41.0 °F 80% 30.33 in 5.0 mi ENE 8.1 mph - N/A   Haze
9:53 AM 48.9 °F - 42.1 °F 77% 30.32 in 8.0 mi East 5.8 mph - N/A   Mostly Cloudy
10:53 AM 51.1 °F - 42.1 °F 71% 30.31 in 9.0 mi Calm Calm - N/A   Mostly Cloudy
11:05 AM 51.8 °F - 42.8 °F 71% 30.28 in 9.0 mi Calm Calm - N/A   Scattered Clouds
12:53 PM 57.0 °F - 42.1 °F 57% 30.25 in 10.0 mi Variable 3.5 mph - N/A   Mostly Cloudy
1:53 PM 59.0 °F - 41.0 °F 51% 30.23 in 10.0 mi Calm Calm - N/A   Scattered Clouds
2:53 PM 60.1 °F - 41.0 °F 49% 30.23 in 10.0 mi Calm Calm - N/A   Overcast
3:53 PM 59.0 °F - 41.0 °F 51% 30.23 in 10.0 mi NNE 3.5 mph - N/A   Overcast
4:53 PM 54.0 °F - 41.0 °F 62% 30.24 in 10.0 mi Calm Calm - N/A   Partly Cloudy
5:53 PM 48.0 °F - 42.1 °F 80% 30.25 in 9.0 mi Calm Calm - N/A   Clear
6:53 PM 44.1 °F - 41.0 °F 89% 30.27 in 4.0 mi Calm Calm - N/A   Clear
7:53 PM 44.1 °F - 41.0 °F 89% 30.28 in 5.0 mi Calm Calm - N/A   Clear
8:53 PM 44.1 °F - 42.1 °F 93% 30.28 in 6.0 mi Calm Calm - N/A   Clear
9:53 PM 42.1 °F - 41.0 °F 96% 30.29 in 6.0 mi Calm Calm - N/A   Clear
10:53 PM 39.9 °F - 39.0 °F 97% 30.28 in 3.0 mi Calm Calm - N/A   Clear
11:53 PM 39.0 °F - 37.9 °F 96% 30.29 in 5.0 mi Calm Calm - N/A   Clear